Miscellaneous Local Product
Issued by NWS Hastings, NE

Home | Current Version | Previous Version | Text Only | Print | Product List | Glossary On
Versions: 1 2 3 4 5 6 7 8 9 10 11 12 13 14 15 16 17 18 19 20 21 22 23 24 25 26 27 28 29 30 31 32 33 34 35 36 37 38 39 40 41 42 43 44 45 46 47 48 49 50
000
AXUS43 KGID 250502
MISGRI

GID CWA HOURLY WEATHER ROUNDUP
NATIONAL WEATHER SERVICE HASTINGS NE
1200 AM CDT THU MAY 25 2017

NOTE: "FAIR" INDICATES FEW OR NO CLOUDS BELOW 12,000 FEET WITH NO
SIGNIFICANT WEATHER AND/OR OBSTRUCTIONS TO VISIBILITY.

...SOUTH CENTRAL NEBRASKA...

CITY           SKY/WX    TMP DP  RH WIND       PRES   REMARKS
GRAND ISLAND   CLEAR     55  46  71 S10       29.64F
HASTINGS       CLEAR     54  44  69 S9        29.65S
KEARNEY        CLEAR     55  43  62 SE15      29.63S
ORD            CLEAR     54  42  64 SE10      29.59S
YORK           CLEAR     52  45  76 SE7       29.66F
AURORA         CLEAR     56  44  64 S9        29.64F
LEXINGTON      CLEAR     56  44  64 SE14      29.59S
HOLDREGE       CLEAR     54  43  67 SE15      29.61F
HEBRON         CLEAR     53  46  77 S6        29.67F

...NEBRASKA PANHANDLE...

CITY           SKY/WX    TMP DP  RH WIND       PRES   REMARKS
CHADRON        CLEAR     65  46  50 S18G30    29.35S
ALLIANCE       CLEAR     56  46  69 SE5       29.44F
SCOTTSBLUFF    CLEAR     69  39  33 W6        29.44F
SIDNEY         CLEAR     55  48  77 S8        29.53R

...WESTERN AND NORTH CENTRAL NEBRASKA...

CITY           SKY/WX    TMP DP  RH WIND       PRES   REMARKS
VALENTINE      CLEAR     61  38  42 S21G31    29.47S
AINSWORTH      CLEAR     55  43  64 S15G23    29.51S
ONEILL         CLEAR     55  42  60 SE12      29.58S
BROKEN BOW     CLEAR     54  44  69 SE13      29.58F
IMPERIAL       CLEAR     57  45  64 SE16      29.54S
NORTH PLATTE   CLEAR     58  43  57 SE13G22   29.55S
MCCOOK         CLEAR     56  44  64 SE14      29.58S

...EASTERN NEBRASKA...

CITY           SKY/WX    TMP DP  RH WIND       PRES   REMARKS
NORFOLK        CLEAR     53  42  66 SE10      29.62F
SO SIOUX CITY  CLEAR     50  45  83 SE7       29.66S
TEKAMAH        CLEAR     52  32  46 S3        29.66F
ALBION         CLEAR     53  43  70 S7        29.63R
OMAHA EPPLEY   CLEAR     54  44  69 SE3       29.67F
OFFUTT AFB     CLEAR     47  46  95 CALM      29.67F
MILLARD        CLEAR     52  49  88 CALM      29.68S
LINCOLN        CLEAR     53  45  74 SE5       29.68F
NEBRASKA CITY  CLEAR     56  39  54 SE5       29.69S
BEATRICE       CLEAR     55  46  69 SE3       29.68S
FALLS CITY     CLEAR     51  46  83 E8        29.69S

...NORTHERN KANSAS...

CITY           SKY/WX    TMP DP  RH WIND       PRES   REMARKS
GOODLAND       CLEAR     57  46  66 S18       29.59R
HILL CITY      CLEAR     54  47  77 SE8       29.63S
NORTON         CLEAR     54  43  66 SE12      29.60S
PHILLIPSBURG   CLEAR     54  46  76 SE9       29.63F
SMITH CENTER   PTCLDY    52  45  76 SE12      29.65S
HAYS           CLEAR     53  46  77 SE10      29.64S
RUSSELL        CLEAR     52  45  77 SE10      29.64S
CONCORDIA      CLEAR     50  45  83 S9        29.67F
SALINA         CLEAR     55  46  71 SE6       29.68F
TOPEKA         CLEAR     52  51  97 CALM      29.70S



USA.gov is the U.S. government's official web portal to all federal, state and local government web resources and services.